SAS48P ESGG-EKCH

Flight info

Callsign SAS48P
Flight time 0h 26m
Altitude 19000
Route TOPLA L996 ERNOV
Aircraft A320/M-SDE3FGHIRWY/LB1

Departure

Time 2026-05-04 13:51
Airport Göteborg Landvetter Airport (ESGG)

Arrival

Time 2026-05-04 14:17
Airport Copenhagen Kastrup Airport (EKCH)
Time Latitude Longitude Altitude Speed Heading
2026-05-04 13:18 57.66778 12.29313 516 ft 0 kts 116°
2026-05-04 13:43 57.66781 12.29301 516 ft 4 kts 116°
2026-05-04 13:44 57.66793 12.29256 516 ft 4 kts 116°
2026-05-04 13:44 57.66802 12.29221 516 ft 4 kts 138°
2026-05-04 13:44 57.66823 12.29210 516 ft 4 kts 201°
2026-05-04 13:44 57.66827 12.29214 516 ft 0 kts 206°
2026-05-04 13:47 57.66826 12.29213 516 ft 1 kts 206°
2026-05-04 13:47 57.66809 12.29197 516 ft 4 kts 206°
2026-05-04 13:47 57.66773 12.29163 516 ft 7 kts 210°
2026-05-04 13:47 57.66780 12.29080 516 ft 8 kts 297°
2026-05-04 13:48 57.66827 12.29001 516 ft 11 kts 355°
2026-05-04 13:48 57.66903 12.29059 516 ft 13 kts 27°
2026-05-04 13:48 57.66993 12.29141 516 ft 15 kts 26°
2026-05-04 13:48 57.67094 12.29233 516 ft 18 kts 26°
2026-05-04 13:49 57.67211 12.29338 516 ft 20 kts 25°
2026-05-04 13:49 57.67337 12.29453 516 ft 17 kts 25°
2026-05-04 13:49 57.67412 12.29467 516 ft 11 kts 320°
2026-05-04 13:49 57.67453 12.29320 516 ft 14 kts 295°
2026-05-04 13:50 57.67461 12.29121 515 ft 13 kts 268°
2026-05-04 13:50 57.67462 12.29095 515 ft 4 kts 279°
2026-05-04 13:50 57.67439 12.29031 515 ft 9 kts 201°
2026-05-04 13:50 57.67225 12.28831 514 ft 69 kts 206°
2026-05-04 13:51 57.66608 12.28276 513 ft 125 kts 206°
2026-05-04 13:51 57.65690 12.27443 636 ft 158 kts 210°
2026-05-04 13:51 57.64705 12.26564 1358 ft 156 kts 211°
2026-05-04 13:51 57.63689 12.25634 1911 ft 172 kts 211°
2026-05-04 13:52 57.61253 12.23416 2648 ft 221 kts 207°
2026-05-04 13:52 57.59661 12.22740 3134 ft 248 kts 192°
2026-05-04 13:52 57.57906 12.22479 3885 ft 261 kts 187°
2026-05-04 13:53 57.56055 12.22346 4819 ft 269 kts 186°
2026-05-04 13:53 57.54166 12.22739 5780 ft 277 kts 175°
2026-05-04 13:53 57.52263 12.23371 6757 ft 279 kts 176°
2026-05-04 13:54 57.48387 12.24527 8537 ft 286 kts 177°
2026-05-04 13:54 57.46413 12.25080 9430 ft 288 kts 178°
2026-05-04 13:54 57.42308 12.26185 10500 ft 318 kts 178°
2026-05-04 13:55 57.40075 12.26772 11067 ft 328 kts 178°
2026-05-04 13:55 57.35495 12.28007 12570 ft 336 kts 178°
2026-05-04 13:55 57.33171 12.28636 13340 ft 339 kts 179°
2026-05-04 13:56 57.30821 12.29265 14029 ft 343 kts 178°
2026-05-04 13:56 57.28476 12.29891 14664 ft 347 kts 178°
2026-05-04 13:56 57.23643 12.31194 15959 ft 355 kts 178°
2026-05-04 13:57 57.21193 12.32017 16581 ft 361 kts 175°
2026-05-04 13:57 57.18718 12.33022 17233 ft 366 kts 174°
2026-05-04 13:58 57.11171 12.36420 18786 ft 377 kts 173°
2026-05-04 13:58 57.06124 12.38643 18884 ft 368 kts 174°
2026-05-04 13:58 57.03638 12.39711 18858 ft 367 kts 174°
2026-05-04 13:59 57.01153 12.40762 18888 ft 366 kts 174°
2026-05-04 13:59 56.98674 12.41800 18882 ft 365 kts 174°
2026-05-04 13:59 56.93739 12.43863 18889 ft 364 kts 174°
2026-05-04 14:00 56.91274 12.44902 18900 ft 364 kts 174°
2026-05-04 14:00 56.86349 12.46972 18918 ft 363 kts 174°
2026-05-04 14:00 56.83889 12.48004 18923 ft 363 kts 174°
2026-05-04 14:01 56.81452 12.49024 18931 ft 363 kts 174°
2026-05-04 14:01 56.78989 12.50054 18940 ft 364 kts 174°
2026-05-04 14:01 56.74057 12.52108 18921 ft 364 kts 174°
2026-05-04 14:02 56.71587 12.53133 18929 ft 364 kts 174°
2026-05-04 14:02 56.69113 12.54165 18935 ft 364 kts 174°
2026-05-04 14:02 56.66647 12.55192 18941 ft 364 kts 174°
2026-05-04 14:02 56.64181 12.56218 18854 ft 360 kts 174°
2026-05-04 14:03 56.61770 12.57224 18534 ft 354 kts 174°
2026-05-04 14:03 56.59377 12.58221 18100 ft 351 kts 174°
2026-05-04 14:03 56.57038 12.59189 17661 ft 348 kts 174°
2026-05-04 14:03 56.54690 12.60153 17241 ft 344 kts 174°
2026-05-04 14:04 56.50057 12.62058 16420 ft 338 kts 174°
2026-05-04 14:04 56.47773 12.62999 16022 ft 335 kts 174°
2026-05-04 14:04 56.45508 12.63929 15614 ft 332 kts 174°
2026-05-04 14:05 56.41032 12.65758 14835 ft 328 kts 174°
2026-05-04 14:05 56.38813 12.66662 14442 ft 326 kts 174°
2026-05-04 14:05 56.36605 12.67561 14053 ft 324 kts 174°
2026-05-04 14:06 56.34413 12.68454 13661 ft 323 kts 173°
2026-05-04 14:06 56.32260 12.69335 13249 ft 321 kts 173°
2026-05-04 14:06 56.30093 12.70222 12866 ft 318 kts 173°
2026-05-04 14:06 56.27931 12.71101 12477 ft 315 kts 174°
2026-05-04 14:07 56.25828 12.71955 12101 ft 313 kts 174°
2026-05-04 14:07 56.23714 12.72814 11704 ft 311 kts 173°
2026-05-04 14:07 56.21611 12.73668 11325 ft 309 kts 173°
2026-05-04 14:07 56.19518 12.74514 10946 ft 307 kts 173°
2026-05-04 14:08 56.17435 12.75352 10557 ft 306 kts 173°
2026-05-04 14:08 56.15366 12.76189 10196 ft 304 kts 173°
2026-05-04 14:08 56.13308 12.77022 9831 ft 303 kts 173°
2026-05-04 14:08 56.11286 12.77840 9662 ft 294 kts 173°
2026-05-04 14:09 56.07261 12.79459 8735 ft 296 kts 173°
2026-05-04 14:09 56.05260 12.80263 8396 ft 293 kts 173°
2026-05-04 14:10 56.01337 12.81829 7668 ft 291 kts 173°
2026-05-04 14:10 55.99373 12.82613 7304 ft 290 kts 173°
2026-05-04 14:10 55.97404 12.83402 6950 ft 290 kts 172°
2026-05-04 14:10 55.95457 12.84184 6736 ft 284 kts 173°
2026-05-04 14:11 55.93518 12.84962 6365 ft 284 kts 172°
2026-05-04 14:11 55.89677 12.86501 5738 ft 280 kts 172°
2026-05-04 14:11 55.87775 12.87260 5360 ft 280 kts 172°
2026-05-04 14:12 55.85880 12.88010 5015 ft 279 kts 172°
2026-05-04 14:12 55.83986 12.88756 4693 ft 278 kts 172°
2026-05-04 14:12 55.80277 12.90131 4263 ft 263 kts 180°
2026-05-04 14:13 55.78507 12.89944 4056 ft 250 kts 198°
2026-05-04 14:13 55.76916 12.88874 3785 ft 241 kts 214°
2026-05-04 14:13 55.75613 12.87136 3486 ft 233 kts 225°
2026-05-04 14:13 55.74417 12.85264 3189 ft 227 kts 225°
2026-05-04 14:14 55.73240 12.83418 2877 ft 225 kts 225°
2026-05-04 14:14 55.71314 12.80385 2391 ft 220 kts 227°
2026-05-04 14:14 55.70215 12.78599 2081 ft 208 kts 226°
2026-05-04 14:15 55.68140 12.75464 1586 ft 179 kts 224°
2026-05-04 14:15 55.66205 12.72541 1046 ft 141 kts 228°
2026-05-04 14:16 55.64802 12.70300 628 ft 135 kts 227°
2026-05-04 14:16 55.64337 12.69551 524 ft 134 kts 226°
2026-05-04 14:17 55.62941 12.67391 183 ft 136 kts 225°
2026-05-04 14:17 55.62246 12.66308 20 ft 130 kts 226°
2026-05-04 14:17 55.61361 12.64931 18 ft 39 kts 223°
2026-05-04 14:18 55.61241 12.64565 17 ft 34 kts 253°
2026-05-04 14:18 55.61251 12.64104 17 ft 18 kts 360°
2026-05-04 14:19 55.61469 12.64329 19 ft 21 kts 33°
2026-05-04 14:19 55.61598 12.64479 17 ft 24 kts 32°
2026-05-04 14:19 55.61761 12.64552 17 ft 26 kts 349°
2026-05-04 14:19 55.61945 12.64490 19 ft 25 kts 349°
2026-05-04 14:20 55.62086 12.64445 17 ft 10 kts 350°
2026-05-04 14:20 55.62099 12.64441 18 ft 0 kts 349°
2026-05-04 14:20 55.62120 12.64434 17 ft 8 kts 349°
2026-05-04 14:21 55.62326 12.64421 18 ft 15 kts 14°
2026-05-04 14:21 55.62366 12.64439 17 ft 3 kts 14°
2026-05-04 14:21 55.62406 12.64446 17 ft 10 kts 348°
2026-05-04 14:21 55.62470 12.64333 18 ft 16 kts 308°
2026-05-04 14:22 55.62528 12.64205 17 ft 11 kts 328°
2026-05-04 14:22 55.62589 12.64278 17 ft 13 kts 66°
2026-05-04 14:22 55.62618 12.64398 17 ft 5 kts 66°
2026-05-04 14:22 55.62623 12.64420 19 ft 0 kts 67°